Location: Hartman Creek State Park
(44.3257°N, 89.2134°W)
Time: 04:02:19
(UTC-06:00)

Cosmos 2263 Rocket - Visible Passes

Search period start: 18 January 2017 00:00
Search period end: 28 January 2017 00:00
Orbit: 822 x 850 km, 71.0° (Epoch: 17 January)

Date Brightness Start Highest point End Pass type
(mag) Time Alt. Az. Time Alt. Az. Time Alt. Az.
18 Jan 5.1 05:30:52 10° SE 05:34:38 18° E 05:38:24 10° ENE visible
18 Jan 5.3 17:49:34 10° WNW 17:52:58 16° W 17:56:20 10° SW visible
19 Jan 5.1 05:14:29 10° SE 05:17:59 17° E 05:21:29 10° ENE visible
19 Jan 5.2 17:32:39 10° WNW 17:36:19 18° W 17:39:57 10° SW visible
20 Jan 5.2 04:58:09 10° SE 05:01:20 15° E 05:04:32 10° ENE visible
20 Jan 2.2 06:38:49 10° SSW 06:44:30 80° WNW 06:50:14 10° NNE visible
20 Jan 5.1 17:15:45 10° NW 17:19:39 19° W 17:23:33 10° SW visible
21 Jan 5.2 04:41:52 10° SE 04:44:42 14° E 04:47:32 10° ENE visible
21 Jan 2.2 06:22:07 10° SSW 06:27:47 86° WNW 06:33:32 10° NNE visible
22 Jan 5.2 04:25:40 10° ESE 04:28:03 13° E 04:30:27 10° ENE visible
22 Jan 2.2 06:05:24 10° SSW 06:11:05 88° ESE 06:16:50 10° NNE visible
23 Jan 5.2 04:09:36 10° ESE 04:11:25 12° E 04:13:15 10° ENE visible
23 Jan 2.3 05:48:42 10° SSW 05:54:23 82° ESE 06:00:07 10° NNE visible
24 Jan 5.3 03:53:52 10° ESE 03:54:47 10° E 03:55:42 10° E visible
24 Jan 2.4 05:32:00 10° SSW 05:37:40 76° ESE 05:43:23 10° NNE visible
25 Jan 2.4 05:15:20 10° SSW 05:20:58 70° ESE 05:26:40 10° NNE visible
26 Jan 2.5 04:58:40 10° S 05:04:17 65° ESE 05:09:56 10° NNE visible
26 Jan 3.3 06:44:12 10° WSW 06:48:42 23° NW 06:53:14 10° N visible
27 Jan 2.7 04:43:53 21° S 04:47:35 60° ESE 04:53:12 10° NNE visible
27 Jan 3.2 06:27:18 10° WSW 06:31:55 25° NW 06:36:36 10° N visible
